Year,Month,Day,Hour,Minute,Value (Times are PST for temperature in C)
2010,07,27,00,00,12.40
2010,07,27,00,01,12.40
2010,07,27,00,02,12.40
2010,07,27,00,03,12.40
2010,07,27,00,04,12.40
2010,07,27,00,05,12.40
2010,07,27,00,06,12.40
2010,07,27,00,07,12.40
2010,07,27,00,08,12.30
2010,07,27,00,09,12.30
2010,07,27,00,10,12.30
2010,07,27,00,11,12.30
2010,07,27,00,12,12.30
2010,07,27,00,13,12.30
2010,07,27,00,14,12.20
2010,07,27,00,15,12.20
2010,07,27,00,16,12.20
2010,07,27,00,17,12.20
2010,07,27,00,18,12.20
2010,07,27,00,19,12.20
2010,07,27,00,20,12.20
2010,07,27,00,21,12.20
2010,07,27,00,22,12.20
2010,07,27,00,23,12.20
2010,07,27,00,24,12.20
2010,07,27,00,25,12.10
2010,07,27,00,26,12.10
2010,07,27,00,27,12.10
2010,07,27,00,28,12.10
2010,07,27,00,29,12.00
2010,07,27,00,30,12.00
2010,07,27,00,31,12.00
2010,07,27,00,32,11.90
2010,07,27,00,33,11.90
2010,07,27,00,34,11.90
2010,07,27,00,35,11.90
2010,07,27,00,36,11.90
2010,07,27,00,37,11.90
2010,07,27,00,38,11.90
2010,07,27,00,39,11.90
2010,07,27,00,40,11.90
2010,07,27,00,41,11.90
2010,07,27,00,42,11.90
2010,07,27,00,43,11.90
2010,07,27,00,44,11.90
2010,07,27,00,45,11.90
2010,07,27,00,46,11.90
2010,07,27,00,47,11.90
2010,07,27,00,48,12.00
2010,07,27,00,49,12.00
2010,07,27,00,50,12.00
2010,07,27,00,51,12.00
2010,07,27,00,52,12.00
2010,07,27,00,53,12.00
2010,07,27,00,54,12.00
2010,07,27,00,55,12.00
2010,07,27,00,56,12.00
2010,07,27,00,57,12.00
2010,07,27,00,58,12.00
2010,07,27,00,59,12.00
2010,07,27,01,00,12.00
2010,07,27,01,01,12.00
2010,07,27,01,02,11.90
2010,07,27,01,03,11.90
2010,07,27,01,04,11.90
2010,07,27,01,05,11.90
2010,07,27,01,06,11.90
2010,07,27,01,07,11.90
2010,07,27,01,08,11.90
2010,07,27,01,09,11.80
2010,07,27,01,10,11.80
2010,07,27,01,11,11.80
2010,07,27,01,12,11.80
2010,07,27,01,13,11.80
2010,07,27,01,14,11.80
2010,07,27,01,15,11.80
2010,07,27,01,16,11.90
2010,07,27,01,17,11.90
2010,07,27,01,18,11.90
2010,07,27,01,19,11.90
2010,07,27,01,20,11.90
2010,07,27,01,21,11.90
2010,07,27,01,22,11.90
2010,07,27,01,23,11.90
2010,07,27,01,24,11.90
2010,07,27,01,25,11.90
2010,07,27,01,26,11.90
2010,07,27,01,27,11.90
2010,07,27,01,28,12.00
2010,07,27,01,29,12.00
2010,07,27,01,30,12.00
2010,07,27,01,31,12.00
2010,07,27,01,32,12.00
2010,07,27,01,33,12.00
2010,07,27,01,34,12.00
2010,07,27,01,35,12.00
2010,07,27,01,36,12.00
2010,07,27,01,37,12.00
2010,07,27,01,38,12.00
2010,07,27,01,39,12.00
2010,07,27,01,40,12.00
2010,07,27,01,41,12.00
2010,07,27,01,42,12.00
2010,07,27,01,43,12.00
2010,07,27,01,44,12.10
2010,07,27,01,45,12.10
2010,07,27,01,46,12.10
2010,07,27,01,47,12.10
2010,07,27,01,48,12.10
2010,07,27,01,49,12.10
2010,07,27,01,50,12.10
2010,07,27,01,51,12.10
2010,07,27,01,52,12.10
2010,07,27,01,53,12.10
2010,07,27,01,54,12.10
2010,07,27,01,55,12.10
2010,07,27,01,56,12.10
2010,07,27,01,57,12.10
2010,07,27,01,58,12.10
2010,07,27,01,59,12.10
2010,07,27,02,00,12.10
2010,07,27,02,01,12.10
2010,07,27,02,02,12.10
2010,07,27,02,03,12.10
2010,07,27,02,04,12.10
2010,07,27,02,05,12.10
2010,07,27,02,06,12.10
2010,07,27,02,07,12.10
2010,07,27,02,08,12.00
2010,07,27,02,09,12.00
2010,07,27,02,10,12.00
2010,07,27,02,11,12.00
2010,07,27,02,12,12.00
2010,07,27,02,13,12.00
2010,07,27,02,14,12.00
2010,07,27,02,15,12.00
2010,07,27,02,16,11.90
2010,07,27,02,17,11.90
2010,07,27,02,18,11.90
2010,07,27,02,19,11.90
2010,07,27,02,20,11.90
2010,07,27,02,21,11.90
2010,07,27,02,22,11.90
2010,07,27,02,23,11.90
2010,07,27,02,24,11.90
2010,07,27,02,25,11.90
2010,07,27,02,26,11.90
2010,07,27,02,27,11.90
2010,07,27,02,28,11.80
2010,07,27,02,29,11.80
2010,07,27,02,30,11.80
2010,07,27,02,31,11.80
2010,07,27,02,32,11.80
2010,07,27,02,33,11.80
2010,07,27,02,34,11.80
2010,07,27,02,35,11.80
2010,07,27,02,36,11.80
2010,07,27,02,37,11.80
2010,07,27,02,38,11.80
2010,07,27,02,39,11.80
2010,07,27,02,40,11.80
2010,07,27,02,41,11.80
2010,07,27,02,42,11.80
2010,07,27,02,43,11.80
2010,07,27,02,44,11.80
2010,07,27,02,45,11.80
2010,07,27,02,46,11.80
2010,07,27,02,47,11.80
2010,07,27,02,48,11.80
2010,07,27,02,49,11.80
2010,07,27,02,50,11.80
2010,07,27,02,51,11.80
2010,07,27,02,52,11.80
2010,07,27,02,53,11.70
2010,07,27,02,54,11.70
2010,07,27,02,55,11.70
2010,07,27,02,56,11.70
2010,07,27,02,57,11.70
2010,07,27,02,58,11.70
2010,07,27,02,59,11.70
2010,07,27,03,00,11.70
2010,07,27,03,01,11.70
2010,07,27,03,02,11.70
2010,07,27,03,03,11.70
2010,07,27,03,04,11.70
2010,07,27,03,05,11.70
2010,07,27,03,06,11.70
2010,07,27,03,07,11.70
2010,07,27,03,08,11.70
2010,07,27,03,09,11.70
2010,07,27,03,10,11.70
2010,07,27,03,11,11.70
2010,07,27,03,12,11.70
2010,07,27,03,13,11.70
2010,07,27,03,14,11.70
2010,07,27,03,15,11.70
2010,07,27,03,16,11.70
2010,07,27,03,17,11.70
2010,07,27,03,18,11.70
2010,07,27,03,19,11.70
2010,07,27,03,20,11.70
2010,07,27,03,21,11.70
2010,07,27,03,22,11.70
2010,07,27,03,23,11.70
2010,07,27,03,24,11.70
2010,07,27,03,25,11.70
2010,07,27,03,26,11.70
2010,07,27,03,27,11.70
2010,07,27,03,28,11.70
2010,07,27,03,29,11.70
2010,07,27,03,30,11.70
2010,07,27,03,31,11.70
2010,07,27,03,32,11.70
2010,07,27,03,33,11.70
2010,07,27,03,34,11.70
2010,07,27,03,35,11.70
2010,07,27,03,36,11.70
2010,07,27,03,37,11.70
2010,07,27,03,38,11.70
2010,07,27,03,39,11.70
2010,07,27,03,40,11.70
2010,07,27,03,41,11.70
2010,07,27,03,42,11.70
2010,07,27,03,43,11.70
2010,07,27,03,44,11.70
2010,07,27,03,45,11.60
2010,07,27,03,46,11.70
2010,07,27,03,47,11.60
2010,07,27,03,48,11.70
2010,07,27,03,49,11.70
2010,07,27,03,50,11.60
2010,07,27,03,51,11.70
2010,07,27,03,52,11.70
2010,07,27,03,53,11.70
2010,07,27,03,54,11.70
2010,07,27,03,55,11.60
2010,07,27,03,56,11.60
2010,07,27,03,57,11.60
2010,07,27,03,58,11.60
2010,07,27,03,59,11.60
2010,07,27,04,00,11.60
2010,07,27,04,01,11.60
2010,07,27,04,02,11.60
2010,07,27,04,03,11.60
2010,07,27,04,04,11.60
2010,07,27,04,05,11.60
2010,07,27,04,06,11.60
2010,07,27,04,07,11.60
2010,07,27,04,08,11.60
2010,07,27,04,09,11.60
2010,07,27,04,10,11.60
2010,07,27,04,11,11.50
2010,07,27,04,12,11.50
2010,07,27,04,13,11.50
2010,07,27,04,14,11.50
2010,07,27,04,15,11.50
2010,07,27,04,16,11.50
2010,07,27,04,17,11.50
2010,07,27,04,18,11.50
2010,07,27,04,19,11.40
2010,07,27,04,20,11.40
2010,07,27,04,21,11.40
2010,07,27,04,22,11.40
2010,07,27,04,23,11.40
2010,07,27,04,24,11.40
2010,07,27,04,25,11.40
2010,07,27,04,26,11.40
2010,07,27,04,27,11.40
2010,07,27,04,28,11.40
2010,07,27,04,29,11.40
2010,07,27,04,30,11.40
2010,07,27,04,31,11.40
2010,07,27,04,32,11.40
2010,07,27,04,33,11.40
2010,07,27,04,34,11.40
2010,07,27,04,35,11.40
2010,07,27,04,36,11.40
2010,07,27,04,37,11.40
2010,07,27,04,38,11.40
2010,07,27,04,39,11.40
2010,07,27,04,40,11.40
2010,07,27,04,41,11.40
2010,07,27,04,42,11.40
2010,07,27,04,43,11.40
2010,07,27,04,44,11.40
2010,07,27,04,45,11.40
2010,07,27,04,46,11.40
2010,07,27,04,47,11.40
2010,07,27,04,48,11.40
2010,07,27,04,49,11.40
2010,07,27,04,50,11.40
2010,07,27,04,51,11.40
2010,07,27,04,52,11.40
2010,07,27,04,53,11.40
2010,07,27,04,54,11.40
2010,07,27,04,55,11.40
2010,07,27,04,56,11.40
2010,07,27,04,57,11.40
2010,07,27,04,58,11.40
2010,07,27,04,59,11.40
2010,07,27,05,00,11.40
2010,07,27,05,01,11.40
2010,07,27,05,02,11.40
2010,07,27,05,03,11.40
2010,07,27,05,04,11.30
2010,07,27,05,05,11.30
2010,07,27,05,06,11.30
2010,07,27,05,07,11.30
2010,07,27,05,08,11.30
2010,07,27,05,09,11.30
2010,07,27,05,10,11.30
2010,07,27,05,11,11.30
2010,07,27,05,12,11.30
2010,07,27,05,13,11.30
2010,07,27,05,14,11.30
2010,07,27,05,15,11.30
2010,07,27,05,16,11.30
2010,07,27,05,17,11.30
2010,07,27,05,18,11.30
2010,07,27,05,19,11.30
2010,07,27,05,20,11.30
2010,07,27,05,21,11.30
2010,07,27,05,22,11.30
2010,07,27,05,23,11.30
2010,07,27,05,24,11.30
2010,07,27,05,25,11.30
2010,07,27,05,26,11.30
2010,07,27,05,27,11.30
2010,07,27,05,28,11.30
2010,07,27,05,29,11.30
2010,07,27,05,30,11.30
2010,07,27,05,31,11.30
2010,07,27,05,32,11.20
2010,07,27,05,33,11.20
2010,07,27,05,34,11.20
2010,07,27,05,35,11.20
2010,07,27,05,36,11.20
2010,07,27,05,37,11.20
2010,07,27,05,38,11.20
2010,07,27,05,39,11.20
2010,07,27,05,40,11.20
2010,07,27,05,41,11.20
2010,07,27,05,42,11.20
2010,07,27,05,43,11.20
2010,07,27,05,44,11.20
2010,07,27,05,45,11.10
2010,07,27,05,46,11.10
2010,07,27,05,47,11.10
2010,07,27,05,48,11.10
2010,07,27,05,49,11.10
2010,07,27,05,50,11.10
2010,07,27,05,51,11.10
2010,07,27,05,52,11.10
2010,07,27,05,53,11.10
2010,07,27,05,54,11.10
2010,07,27,05,55,11.10
2010,07,27,05,56,11.10
2010,07,27,05,57,11.10
2010,07,27,05,58,11.10
2010,07,27,05,59,11.10
2010,07,27,06,00,11.10
2010,07,27,06,01,11.10
2010,07,27,06,02,11.10
2010,07,27,06,03,11.10
2010,07,27,06,04,11.10
2010,07,27,06,05,11.10
2010,07,27,06,06,11.10
2010,07,27,06,07,11.10
2010,07,27,06,08,11.20
2010,07,27,06,09,11.20
2010,07,27,06,10,11.20
2010,07,27,06,11,11.20
2010,07,27,06,12,11.20
2010,07,27,06,13,11.20
2010,07,27,06,14,11.20
2010,07,27,06,15,11.20
2010,07,27,06,16,11.30
2010,07,27,06,17,11.30
2010,07,27,06,18,11.30
2010,07,27,06,19,11.30
2010,07,27,06,20,11.30
2010,07,27,06,21,11.30
2010,07,27,06,22,11.30
2010,07,27,06,23,11.30
2010,07,27,06,24,11.30
2010,07,27,06,25,11.30
2010,07,27,06,26,11.30
2010,07,27,06,27,11.30
2010,07,27,06,28,11.30
2010,07,27,06,29,11.30
2010,07,27,06,30,11.30
2010,07,27,06,31,11.30
2010,07,27,06,32,11.40
2010,07,27,06,33,11.40
2010,07,27,06,34,11.40
2010,07,27,06,35,11.40
2010,07,27,06,36,11.40
2010,07,27,06,37,11.40
2010,07,27,06,38,11.40
2010,07,27,06,39,11.40
2010,07,27,06,40,11.50
2010,07,27,06,41,11.50
2010,07,27,06,42,11.50
2010,07,27,06,43,11.50
2010,07,27,06,44,11.60
2010,07,27,06,45,11.60
2010,07,27,06,46,11.60
2010,07,27,06,47,11.60
2010,07,27,06,48,11.60
2010,07,27,06,49,11.70
2010,07,27,06,50,11.70
2010,07,27,06,51,11.70
2010,07,27,06,52,11.70
2010,07,27,06,53,11.80
2010,07,27,06,54,11.80
2010,07,27,06,55,11.80
2010,07,27,06,56,11.80
2010,07,27,06,57,11.80
2010,07,27,06,58,11.90
2010,07,27,06,59,11.90
2010,07,27,07,00,11.90
2010,07,27,07,01,12.00
2010,07,27,07,02,12.00
2010,07,27,07,03,12.00
2010,07,27,07,04,12.10
2010,07,27,07,05,12.10
2010,07,27,07,06,12.10
2010,07,27,07,07,12.10
2010,07,27,07,08,12.20
2010,07,27,07,09,12.20
2010,07,27,07,10,12.20
2010,07,27,07,11,12.20
2010,07,27,07,12,12.20
2010,07,27,07,13,12.20
2010,07,27,07,14,12.30
2010,07,27,07,15,12.30
2010,07,27,07,16,12.30
2010,07,27,07,17,12.30
2010,07,27,07,18,12.40
2010,07,27,07,19,12.40
2010,07,27,07,20,12.40
2010,07,27,07,21,12.50
2010,07,27,07,22,12.50
2010,07,27,07,23,12.50
2010,07,27,07,24,12.60
2010,07,27,07,25,12.60
2010,07,27,07,26,12.60
2010,07,27,07,27,12.60
2010,07,27,07,28,12.60
2010,07,27,07,29,12.70
2010,07,27,07,30,12.70
2010,07,27,07,31,12.70
2010,07,27,07,32,12.70
2010,07,27,07,33,12.80
2010,07,27,07,34,12.80
2010,07,27,07,35,12.80
2010,07,27,07,36,12.80
2010,07,27,07,37,12.80
2010,07,27,07,38,12.90
2010,07,27,07,39,12.90
2010,07,27,07,40,12.90
2010,07,27,07,41,12.90
2010,07,27,07,42,13.00
2010,07,27,07,43,13.00
2010,07,27,07,44,13.00
2010,07,27,07,45,13.00
2010,07,27,07,46,13.00
2010,07,27,07,47,13.10
2010,07,27,07,48,13.10
2010,07,27,07,49,13.10
2010,07,27,07,50,13.10
2010,07,27,07,51,13.10
2010,07,27,07,52,13.20
2010,07,27,07,53,13.20
2010,07,27,07,54,13.20
2010,07,27,07,55,13.20
2010,07,27,07,56,13.30
2010,07,27,07,57,13.30
2010,07,27,07,58,13.40
2010,07,27,07,59,13.40
2010,07,27,08,00,13.50
2010,07,27,08,01,13.50
2010,07,27,08,02,13.60
2010,07,27,08,03,13.60
2010,07,27,08,04,13.70
2010,07,27,08,05,13.80
2010,07,27,08,06,13.80
2010,07,27,08,07,13.80
2010,07,27,08,08,13.80
2010,07,27,08,09,13.90
2010,07,27,08,10,13.90
2010,07,27,08,11,14.00
2010,07,27,08,12,14.00
2010,07,27,08,13,14.00
2010,07,27,08,14,14.00
2010,07,27,08,15,14.00
2010,07,27,08,16,14.00
2010,07,27,08,17,14.00
2010,07,27,08,18,14.00
2010,07,27,08,19,14.00
2010,07,27,08,20,14.00
2010,07,27,08,21,14.00
2010,07,27,08,22,14.00
2010,07,27,08,23,14.10
2010,07,27,08,24,14.10
2010,07,27,08,25,14.10
2010,07,27,08,26,14.10
2010,07,27,08,27,14.10
2010,07,27,08,28,14.20
2010,07,27,08,29,14.20
2010,07,27,08,30,14.20
2010,07,27,08,31,14.20
2010,07,27,08,32,14.20
2010,07,27,08,33,14.10
2010,07,27,08,34,14.20
2010,07,27,08,35,14.20
2010,07,27,08,36,14.20
2010,07,27,08,37,14.20
2010,07,27,08,38,14.20
2010,07,27,08,39,14.20
2010,07,27,08,40,14.30
2010,07,27,08,41,14.30
2010,07,27,08,42,14.30
2010,07,27,08,43,14.30
2010,07,27,08,44,14.30
2010,07,27,08,45,14.30
2010,07,27,08,46,14.40
2010,07,27,08,47,14.40
2010,07,27,08,48,14.50
2010,07,27,08,49,14.60
2010,07,27,08,50,14.60
2010,07,27,08,51,14.60
2010,07,27,08,52,14.60
2010,07,27,08,53,14.70
2010,07,27,08,54,14.70
2010,07,27,08,55,14.80
2010,07,27,08,56,14.80
2010,07,27,08,57,14.80
2010,07,27,08,58,14.80
2010,07,27,08,59,14.80
2010,07,27,09,00,14.80
2010,07,27,09,01,14.90
2010,07,27,09,02,14.90
2010,07,27,09,03,14.90
2010,07,27,09,04,15.00
2010,07,27,09,05,15.00
2010,07,27,09,06,15.00
2010,07,27,09,07,15.00
2010,07,27,09,08,15.00
2010,07,27,09,09,15.00
2010,07,27,09,10,15.00
2010,07,27,09,11,15.00
2010,07,27,09,12,15.00
2010,07,27,09,13,15.00
2010,07,27,09,14,15.00
2010,07,27,09,15,15.10
2010,07,27,09,16,15.20
2010,07,27,09,17,15.30
2010,07,27,09,18,15.30
2010,07,27,09,19,15.40
2010,07,27,09,20,15.40
2010,07,27,09,21,15.40
2010,07,27,09,22,15.40
2010,07,27,09,23,15.40
2010,07,27,09,24,15.40
2010,07,27,09,25,15.40
2010,07,27,09,26,15.40
2010,07,27,09,27,15.40
2010,07,27,09,28,15.40
2010,07,27,09,29,15.40
2010,07,27,09,30,15.30
2010,07,27,09,31,15.30
2010,07,27,09,32,15.20
2010,07,27,09,33,15.10
2010,07,27,09,34,15.00
2010,07,27,09,35,15.00
2010,07,27,09,36,15.00
2010,07,27,09,37,15.00
2010,07,27,09,38,14.90
2010,07,27,09,39,15.00
2010,07,27,09,40,15.00
2010,07,27,09,41,15.00
2010,07,27,09,42,15.00
2010,07,27,09,43,15.00
2010,07,27,09,44,15.00
2010,07,27,09,45,15.10
2010,07,27,09,46,15.30
2010,07,27,09,47,15.40
2010,07,27,09,48,15.40
2010,07,27,09,49,15.50
2010,07,27,09,50,15.50
2010,07,27,09,51,15.50
2010,07,27,09,52,15.40
2010,07,27,09,53,15.40
2010,07,27,09,54,15.30
2010,07,27,09,55,15.20
2010,07,27,09,56,15.20
2010,07,27,09,57,15.30
2010,07,27,09,58,15.30
2010,07,27,09,59,15.40
2010,07,27,10,00,15.40
2010,07,27,10,01,15.40
2010,07,27,10,02,15.40
2010,07,27,10,03,15.30
2010,07,27,10,04,15.30
2010,07,27,10,05,15.20
2010,07,27,10,06,15.00
2010,07,27,10,07,15.00
2010,07,27,10,08,15.00
2010,07,27,10,09,15.00
2010,07,27,10,10,15.00
2010,07,27,10,11,15.20
2010,07,27,10,12,15.30
2010,07,27,10,13,15.30
2010,07,27,10,14,15.30
2010,07,27,10,15,15.20
2010,07,27,10,16,15.00
2010,07,27,10,17,15.00
2010,07,27,10,18,15.00
2010,07,27,10,19,14.80
2010,07,27,10,20,14.70
2010,07,27,10,21,14.70
2010,07,27,10,22,14.60
2010,07,27,10,23,14.50
2010,07,27,10,24,14.50
2010,07,27,10,25,14.40
2010,07,27,10,26,14.30
2010,07,27,10,27,14.30
2010,07,27,10,28,14.20
2010,07,27,10,29,14.20
2010,07,27,10,30,14.20
2010,07,27,10,31,14.30
2010,07,27,10,32,14.50
2010,07,27,10,33,14.60
2010,07,27,10,34,14.70
2010,07,27,10,35,14.70
2010,07,27,10,36,14.80
2010,07,27,10,37,14.80
2010,07,27,10,38,14.80
2010,07,27,10,39,14.70
2010,07,27,10,40,14.70
2010,07,27,10,41,14.60
2010,07,27,10,42,14.50
2010,07,27,10,43,14.40
2010,07,27,10,44,14.40
2010,07,27,10,45,14.40
2010,07,27,10,46,14.40
2010,07,27,10,47,14.40
2010,07,27,10,48,14.50
2010,07,27,10,49,14.60
2010,07,27,10,50,14.60
2010,07,27,10,51,14.60
2010,07,27,10,52,14.50
2010,07,27,10,53,14.50
2010,07,27,10,54,14.50
2010,07,27,10,55,14.50
2010,07,27,10,56,14.50
2010,07,27,10,57,14.50
2010,07,27,10,58,14.40
2010,07,27,10,59,14.30
2010,07,27,11,00,14.40
2010,07,27,11,01,14.50
2010,07,27,11,02,14.60
2010,07,27,11,03,14.60
2010,07,27,11,04,14.60
2010,07,27,11,05,14.70
2010,07,27,11,06,14.80
2010,07,27,11,07,14.90
2010,07,27,11,08,14.90
2010,07,27,11,09,14.90
2010,07,27,11,10,14.90
2010,07,27,11,11,15.00
2010,07,27,11,12,15.00
2010,07,27,11,13,15.00
2010,07,27,11,14,15.00
2010,07,27,11,15,15.10
2010,07,27,11,16,15.20
2010,07,27,11,17,15.30
2010,07,27,11,18,15.30
2010,07,27,11,19,15.30
2010,07,27,11,20,15.30
2010,07,27,11,21,15.30
2010,07,27,11,22,15.20
2010,07,27,11,23,15.00
2010,07,27,11,24,15.00
2010,07,27,11,25,15.00
2010,07,27,11,26,15.10
2010,07,27,11,27,15.30
2010,07,27,11,28,15.40
2010,07,27,11,29,15.50
2010,07,27,11,30,15.40
2010,07,27,11,31,15.30
2010,07,27,11,32,15.10
2010,07,27,11,33,15.00
2010,07,27,11,34,15.00
2010,07,27,11,35,15.00
2010,07,27,11,36,14.80
2010,07,27,11,37,14.70
2010,07,27,11,38,14.60
2010,07,27,11,39,14.50
2010,07,27,11,40,14.40
2010,07,27,11,41,14.30
2010,07,27,11,42,14.30
2010,07,27,11,43,14.30
2010,07,27,11,44,14.30
2010,07,27,11,45,14.40
2010,07,27,11,46,14.50
2010,07,27,11,47,14.60
2010,07,27,11,48,14.70
2010,07,27,11,49,14.70
2010,07,27,11,50,14.80
2010,07,27,11,51,14.80
2010,07,27,11,52,14.80
2010,07,27,11,53,14.80
2010,07,27,11,54,14.90
2010,07,27,11,55,14.90
2010,07,27,11,56,14.90
2010,07,27,11,57,14.90
2010,07,27,11,58,14.90
2010,07,27,11,59,15.00
2010,07,27,12,00,15.00
2010,07,27,12,01,15.00
2010,07,27,12,02,15.10
2010,07,27,12,03,15.20
2010,07,27,12,04,15.30
2010,07,27,12,05,15.30
2010,07,27,12,06,15.30
2010,07,27,12,07,15.30
2010,07,27,12,08,15.40
2010,07,27,12,09,15.40
2010,07,27,12,10,15.50
2010,07,27,12,11,15.50
2010,07,27,12,12,15.60
2010,07,27,12,13,15.70
2010,07,27,12,14,15.80
2010,07,27,12,15,15.90
2010,07,27,12,16,16.10
2010,07,27,12,17,16.20
2010,07,27,12,18,16.20
2010,07,27,12,19,16.30
2010,07,27,12,20,16.30
2010,07,27,12,21,16.40
2010,07,27,12,22,16.50
2010,07,27,12,23,16.50
2010,07,27,12,24,16.60
2010,07,27,12,25,16.60
2010,07,27,12,26,16.70
2010,07,27,12,27,16.70
2010,07,27,12,28,16.70
2010,07,27,12,29,16.70
2010,07,27,12,30,16.70
2010,07,27,12,31,16.70
2010,07,27,12,32,16.70
2010,07,27,12,33,16.80
2010,07,27,12,34,16.80
2010,07,27,12,35,16.80
2010,07,27,12,36,16.80
2010,07,27,12,37,16.90
2010,07,27,12,38,16.90
2010,07,27,12,39,16.90
2010,07,27,12,40,16.90
2010,07,27,12,41,17.00
2010,07,27,12,42,17.00
2010,07,27,12,43,17.00
2010,07,27,12,44,17.00
2010,07,27,12,45,17.00
2010,07,27,12,46,17.00
2010,07,27,12,47,16.90
2010,07,27,12,48,16.80
2010,07,27,12,49,16.70
2010,07,27,12,50,16.60
2010,07,27,12,51,16.50
2010,07,27,12,52,16.40
2010,07,27,12,53,16.30
2010,07,27,12,54,16.20
2010,07,27,12,55,16.20
2010,07,27,12,56,16.30
2010,07,27,12,57,16.30
2010,07,27,12,58,16.40
2010,07,27,12,59,16.50
2010,07,27,13,00,16.60
2010,07,27,13,01,16.70
2010,07,27,13,02,16.80
2010,07,27,13,03,16.90
2010,07,27,13,04,17.10
2010,07,27,13,05,17.10
2010,07,27,13,06,17.10
2010,07,27,13,07,17.20
2010,07,27,13,08,17.30
2010,07,27,13,09,17.30
2010,07,27,13,10,17.30
2010,07,27,13,11,17.40
2010,07,27,13,12,17.50
2010,07,27,13,13,17.60
2010,07,27,13,14,17.70
2010,07,27,13,15,17.80
2010,07,27,13,16,17.80
2010,07,27,13,17,17.90
2010,07,27,13,18,18.00
2010,07,27,13,19,18.10
2010,07,27,13,20,18.20
2010,07,27,13,21,18.20
2010,07,27,13,22,18.30
2010,07,27,13,23,18.40
2010,07,27,13,24,18.40
2010,07,27,13,25,18.50
2010,07,27,13,26,18.50
2010,07,27,13,27,18.60
2010,07,27,13,28,18.60
2010,07,27,13,29,18.60
2010,07,27,13,30,18.60
2010,07,27,13,31,18.60
2010,07,27,13,32,18.60
2010,07,27,13,33,18.60
2010,07,27,13,34,18.60
2010,07,27,13,35,18.70
2010,07,27,13,36,18.80
2010,07,27,13,37,18.70
2010,07,27,13,38,18.80
2010,07,27,13,39,18.70
2010,07,27,13,40,18.70
2010,07,27,13,41,18.80
2010,07,27,13,42,18.80
2010,07,27,13,43,18.90
2010,07,27,13,44,18.90
2010,07,27,13,45,19.00
2010,07,27,13,46,19.00
2010,07,27,13,47,19.10
2010,07,27,13,48,19.20
2010,07,27,13,49,19.20
2010,07,27,13,50,19.30
2010,07,27,13,51,19.30
2010,07,27,13,52,19.50
2010,07,27,13,53,19.70
2010,07,27,13,54,19.80
2010,07,27,13,55,20.00
2010,07,27,13,56,20.20
2010,07,27,13,57,20.30
2010,07,27,13,58,20.30
2010,07,27,13,59,20.40
2010,07,27,14,00,20.40
2010,07,27,14,01,20.50
2010,07,27,14,02,20.60
2010,07,27,14,03,20.70
2010,07,27,14,04,20.80
2010,07,27,14,05,20.80
2010,07,27,14,06,20.90
2010,07,27,14,07,20.80
2010,07,27,14,08,20.80
2010,07,27,14,09,20.70
2010,07,27,14,10,20.70
2010,07,27,14,11,20.80
2010,07,27,14,12,20.80
2010,07,27,14,13,20.90
2010,07,27,14,14,20.80
2010,07,27,14,15,20.80
2010,07,27,14,16,20.80
2010,07,27,14,17,20.80
2010,07,27,14,18,20.90
2010,07,27,14,19,21.00
2010,07,27,14,20,21.10
2010,07,27,14,21,21.20
2010,07,27,14,22,21.20
2010,07,27,14,23,21.30
2010,07,27,14,24,21.30
2010,07,27,14,25,21.20
2010,07,27,14,26,21.20
2010,07,27,14,27,21.10
2010,07,27,14,28,21.00
2010,07,27,14,29,20.90
2010,07,27,14,30,20.80
2010,07,27,14,31,20.80
2010,07,27,14,32,20.70
2010,07,27,14,33,20.80
2010,07,27,14,34,20.90
2010,07,27,14,35,21.00
2010,07,27,14,36,21.00
2010,07,27,14,37,20.90
2010,07,27,14,38,20.90
2010,07,27,14,39,21.00
2010,07,27,14,40,21.10
2010,07,27,14,41,21.20
2010,07,27,14,42,21.40
2010,07,27,14,43,21.60
2010,07,27,14,44,21.80
2010,07,27,14,45,22.00
2010,07,27,14,46,22.20
2010,07,27,14,47,22.30
2010,07,27,14,48,22.40
2010,07,27,14,49,22.50
2010,07,27,14,50,22.40
2010,07,27,14,51,22.30
2010,07,27,14,52,22.10
2010,07,27,14,53,22.00
2010,07,27,14,54,21.90
2010,07,27,14,55,21.80
2010,07,27,14,56,21.70
2010,07,27,14,57,21.60
2010,07,27,14,58,21.60
2010,07,27,14,59,21.70
2010,07,27,15,00,21.70
2010,07,27,15,01,21.70
2010,07,27,15,02,21.60
2010,07,27,15,03,21.70
2010,07,27,15,04,21.80
2010,07,27,15,05,21.80
2010,07,27,15,06,21.70
2010,07,27,15,07,21.70
2010,07,27,15,08,21.70
2010,07,27,15,09,21.80
2010,07,27,15,10,21.80
2010,07,27,15,11,21.80
2010,07,27,15,12,21.80
2010,07,27,15,13,21.80
2010,07,27,15,14,21.80
2010,07,27,15,15,21.80
2010,07,27,15,16,21.70
2010,07,27,15,17,21.60
2010,07,27,15,18,21.50
2010,07,27,15,19,21.50
2010,07,27,15,20,21.40
2010,07,27,15,21,21.40
2010,07,27,15,22,21.40
2010,07,27,15,23,21.40
2010,07,27,15,24,21.50
2010,07,27,15,25,21.60
2010,07,27,15,26,21.80
2010,07,27,15,27,21.90
2010,07,27,15,28,22.10
2010,07,27,15,29,22.30
2010,07,27,15,30,22.40
2010,07,27,15,31,22.50
2010,07,27,15,32,22.60
2010,07,27,15,33,22.60
2010,07,27,15,34,22.50
2010,07,27,15,35,22.50
2010,07,27,15,36,22.50
2010,07,27,15,37,22.60
2010,07,27,15,38,22.60
2010,07,27,15,39,22.70
2010,07,27,15,40,22.80
2010,07,27,15,41,23.00
2010,07,27,15,42,23.10
2010,07,27,15,43,23.20
2010,07,27,15,44,23.20
2010,07,27,15,45,23.20
2010,07,27,15,46,23.30
2010,07,27,15,47,23.40
2010,07,27,15,48,23.50
2010,07,27,15,49,23.50
2010,07,27,15,50,23.30
2010,07,27,15,51,23.30
2010,07,27,15,52,23.30
2010,07,27,15,53,23.30
2010,07,27,15,54,23.30
2010,07,27,15,55,23.30
2010,07,27,15,56,23.30
2010,07,27,15,57,23.20
2010,07,27,15,58,23.30
2010,07,27,15,59,23.40
2010,07,27,16,00,23.50
2010,07,27,16,01,23.50
2010,07,27,16,02,23.50
2010,07,27,16,03,23.50
2010,07,27,16,04,23.40
2010,07,27,16,05,23.30
2010,07,27,16,06,23.20
2010,07,27,16,07,23.10
2010,07,27,16,08,23.10
2010,07,27,16,09,23.00
2010,07,27,16,10,22.90
2010,07,27,16,11,22.90
2010,07,27,16,12,22.90
2010,07,27,16,13,22.80
2010,07,27,16,14,22.70
2010,07,27,16,15,22.50
2010,07,27,16,16,22.30
2010,07,27,16,17,22.10
2010,07,27,16,18,22.00
2010,07,27,16,19,22.00
2010,07,27,16,20,22.00
2010,07,27,16,21,22.00
2010,07,27,16,22,22.00
2010,07,27,16,23,22.10
2010,07,27,16,24,22.20
2010,07,27,16,25,22.20
2010,07,27,16,26,22.20
2010,07,27,16,27,22.10
2010,07,27,16,28,22.00
2010,07,27,16,29,22.00
2010,07,27,16,30,22.00
2010,07,27,16,31,21.90
2010,07,27,16,32,21.80
2010,07,27,16,33,21.80
2010,07,27,16,34,21.60
2010,07,27,16,35,21.50
2010,07,27,16,36,21.40
2010,07,27,16,37,21.30
2010,07,27,16,38,21.40
2010,07,27,16,39,21.40
2010,07,27,16,40,21.50
2010,07,27,16,41,21.50
2010,07,27,16,42,21.60
2010,07,27,16,43,21.70
2010,07,27,16,44,21.70
2010,07,27,16,45,21.80
2010,07,27,16,46,21.80
2010,07,27,16,47,21.80
2010,07,27,16,48,21.90
2010,07,27,16,49,21.90
2010,07,27,16,50,21.90
2010,07,27,16,51,21.80
2010,07,27,16,52,21.80
2010,07,27,16,53,21.80
2010,07,27,16,54,21.70
2010,07,27,16,55,21.70
2010,07,27,16,56,21.60
2010,07,27,16,57,21.50
2010,07,27,16,58,21.50
2010,07,27,16,59,21.50
2010,07,27,17,00,21.50
2010,07,27,17,01,21.50
2010,07,27,17,02,21.60
2010,07,27,17,03,21.60
2010,07,27,17,04,21.60
2010,07,27,17,05,21.60
2010,07,27,17,06,21.60
2010,07,27,17,07,21.60
2010,07,27,17,08,21.70
2010,07,27,17,09,21.70
2010,07,27,17,10,21.70
2010,07,27,17,11,21.60
2010,07,27,17,12,21.60
2010,07,27,17,13,21.60
2010,07,27,17,14,21.60
2010,07,27,17,15,21.70
2010,07,27,17,16,21.80
2010,07,27,17,17,21.90
2010,07,27,17,18,22.10
2010,07,27,17,19,22.10